Location: Erzgrube
(48.5477°N, 8.4730°E)
Time: 19:12:35
(UTC+00:00)

Daily predictions for brighter satellites

Satellite Brightness Start Highest point End
(mag) Time Altitude Azimuth Time Altitude Azimuth Time Altitude Azimuth
ATLAS 5 CENTAUR R/B 2.1 16:08:39 10° NW 16:12:58 73° SW 16:18:22 10° SSE
Cosmos 1844 Rocket 4.4 16:12:20 10° WSW 16:17:02 27° NW 16:21:46 10° NNE
Cosmos 2344 4.4 16:10:55 10° NW 16:17:44 36° NNE 16:26:02 10° E
Cosmos 1802 Rocket 4.2 16:11:28 10° S 16:17:54 85° W 16:24:22 10° N
Cosmos 1025 Rocket 4.3 16:15:20 10° NNW 16:19:27 45° W 16:23:32 10° SSW
Iridium 4 Rocket 3.6 16:14:32 10° S 16:19:32 72° W 16:24:08 10° N
SAR-Lupe-4 4.1 16:16:49 10° SE 16:20:08 37° ENE 16:23:28 10° N
ISS -3.2 16:24:36 10° SW 16:27:49 48° SSE 16:30:57 11° ENE
CZ-2D R/B 3.3 16:26:30 10° SE 16:29:24 35° ENE 16:32:19 10° N
COSMOS 2406 4.2 16:25:25 10° N 16:30:06 26° NE 16:34:47 10° E
Cosmos 1833 Rocket 3.4 16:24:41 10° NW 16:30:15 60° WSW 16:35:47 10° S
Cosmos 407 Rocket 3.8 16:25:37 10° S 16:30:30 44° ESE 16:35:23 10° NE
Cosmos 1484 Rocket 3.5 16:28:08 10° S 16:31:34 52° W 16:35:02 10° NNW
Cosmos 2016 Rocket 4.2 16:25:30 10° SSW 16:31:48 79° W 16:38:14 10° N
Cosmos 1812 3.5 16:30:25 10° SE 16:32:31 18° E 16:34:33 10° NE
CBERS-1 4.5 16:28:49 10° S 16:33:54 69° WSW 16:39:02 10° NNW
IRS-P3 4.4 16:29:34 10° SE 16:34:36 44° ENE 16:39:38 10° N
TIMED 4.4 16:30:26 10° SSW 16:34:40 74° ESE 16:38:57 10° NNE
Tsikada Rocket 4.1 16:29:08 10° N 16:35:35 88° W 16:41:56 10° S
Cosmos 2084 Rocket 4.2 16:35:40 10° WSW 16:39:41 46° NW 16:43:46 10° NE
SMAP 3.0 16:37:02 10° SSE 16:41:41 79° ENE 16:46:23 10° NNW
Cosmos 44 Rocket 3.8 16:38:55 10° S 16:43:24 42° ESE 16:47:38 12° NE
Cosmos 540 Rocket 3.4 16:39:42 10° NNW 16:44:51 68° ENE 16:49:55 10° SSE
SJ 16-02 2.6 16:42:32 10° SE 16:45:43 20° E 16:47:54 14° ENE
SPOT 1/Viking Rocket 4.1 16:41:54 10° SE 16:46:31 34° ENE 16:51:10 10° N
Radarsat 4.5 16:41:24 10° SSE 16:46:34 80° ENE 16:51:46 10° NNW
Cosmos 1869 3.1 16:44:01 10° S 16:47:26 52° E 16:50:52 10° NNE
YAOGAN 1 3.7 16:45:06 10° ESE 16:48:25 22° ENE 16:51:44 10° NNE
IGS 5A 4.1 16:44:58 10° S 16:48:53 56° W 16:52:48 10° NNW
SL-16 R/B 3.1 16:46:38 10° N 16:52:48 61° WNW 16:58:55 10° SW
Cosmos 1763 Rocket 3.5 16:48:03 10° NNW 16:53:18 89° WSW 16:58:26 10° SSE
Landsat 7 3.7 16:49:13 10° SSE 16:53:51 76° ENE 16:58:31 10° N
Nadezhda 4 Rocket 4.3 16:52:41 10° N 16:58:38 42° ENE 17:04:30 10° SE
Timation 1 Rocket 4.3 16:53:00 10° NNW 16:59:01 90° WSW 17:05:00 10° SSE
RESURS DK-1 2.4 16:55:00 10° NNW 16:59:01 79° WSW 17:03:00 10° SSE
Cosmos 1140 Rocket 4.0 16:54:28 10° SW 16:59:34 59° WNW 17:04:40 10° NNE
Aureole 3 Rocket 2.5 16:57:35 10° SSE 17:00:27 44° E 17:03:36 10° NNE
CZ-4C R/B 3.7 16:57:45 10° WNW 17:01:48 24° NNW 17:06:45 10° NE
Resurs 1-3 4.4 16:58:59 10° SE 17:02:39 28° ENE 17:06:21 10° N
SJ-6F 4.2 17:01:54 10° SSE 17:05:47 72° ENE 17:09:42 10° N
UNK 4.0 17:01:15 10° N 17:05:52 70° WNW 17:10:26 10° SSW
Meteor 2-12 Rocket 4.5 17:03:27 10° N 17:09:35 85° W 17:15:39 10° S
Cosmos 1400 Rocket 3.4 17:06:32 10° SSE 17:09:54 31° E 17:11:07 25° ENE
Cosmos 371 Rocket 4.1 17:06:08 10° SSE 17:10:14 29° E 17:12:04 22° ENE
SJ-12 4.0 17:06:29 10° S 17:10:16 72° WSW 17:14:04 10° NNW
Cosmos 1536 Rocket 3.7 17:07:58 10° N 17:12:16 47° ENE 17:16:31 10° SSE
SAR-Lupe-3 3.8 17:13:47 16° N 17:15:44 76° WNW 17:18:21 10° SSW
Helios 1A Rocket 3.7 17:16:48 23° ESE 17:16:48 23° ESE 17:18:52 10° SSE
Okean 2 Rocket 3.5 17:13:12 10° SSE 17:17:15 37° E 17:20:03 18° NNE
Cosmos 489 Rocket 4.5 17:12:54 10° NNW 17:19:06 59° ENE 17:25:14 10° SE
NOAA 6 4.4 17:20:52 10° SE 17:25:38 41° ENE 17:30:26 10° N
SL-12 R/B(2) 4.4 17:18:37 10° SW 17:26:39 88° NW 17:35:47 13° NE
COSMO-SKYMED 1 2.8 17:26:49 32° ENE 17:27:56 39° E 17:31:49 10° SSE
Resurs 01 Rocket 3.3 17:30:11 17° NNE 17:30:11 17° NNE 17:31:42 10° N
Cosmos 1943 Rocket 2.3 17:24:27 10° SSW 17:30:04 75° WNW 17:35:17 12° NNE
Timation 2 Rocket 4.3 17:24:35 10° SW 17:31:29 76° WNW 17:38:21 10° NNE
Cosmos 2251 Rocket 3.4 17:28:43 10° SSW 17:34:00 84° ESE 17:38:36 14° NNE
Cosmos 841 Rocket 3.5 17:28:52 10° NNW 17:34:05 58° ENE 17:38:54 12° SE
Cosmos 2058 2.9 17:30:16 10° NNW 17:34:14 74° W 17:38:12 10° S
SJ-7 4.0 17:32:11 10° SSE 17:35:49 63° ENE 17:39:29 10° N
BREEZE-M DEB (TANK) 2.4 17:35:09 10° WSW 17:37:50 86° SSE 17:39:49 35° E
Cosmos 2082 Rocket 2.4 17:33:39 10° NNW 17:39:16 74° WSW 17:44:51 10° SSE
ATLAS 2AS CENTAUR R/B 3.2 17:33:39 10° NW 17:40:01 40° NNE 17:42:14 32° ENE
Cosmos 1346 Rocket 4.4 17:37:20 10° N 17:38:39 20° N 17:38:39 20° N
IRAS Rocket 4.1 17:37:18 10° SSE 17:42:51 81° ENE 17:48:24 10° NNW
Cosmos 2278 Rocket 2.6 17:37:59 10° SW 17:43:36 64° WNW 17:48:32 14° NNE
MOS 1 Rocket 3.8 17:40:54 10° S 17:45:08 57° W 17:49:37 10° NNW
Cosmos 1464 Rocket 3.9 17:43:32 10° S 17:49:50 89° W 17:56:07 10° N
ARIANE 5 R/B 4.3 17:45:48 10° SSW 17:50:14 32° W 17:54:43 10° NNW
Cosmos 1634 Rocket 4.4 17:44:48 10° SSE 17:57:51 - NNE 17:50:01 37° E
CZ-2D R/B 3.7 17:46:45 10° S 17:50:52 70° WSW 17:55:06 10° NNW
Meteor 2-1 Rocket 4.3 17:45:49 10° S 17:51:33 56° E 17:57:22 10° NNE
Cosmos 2369 Rocket 3.9 17:48:36 10° SSE 17:50:08 17° SE 17:50:08 17° SE
USA 215 4.3 17:47:59 10° SSE 17:54:09 44° SW 18:00:22 10° WNW
Cosmos 1862 3.8 17:53:05 10° NNW 17:56:38 53° W 18:00:10 10° S
PSLV R/B 3.3 17:52:37 10° SSE 17:56:39 84° WSW 18:00:43 10° NNW
Cosmos 2151 Rocket 4.0 17:56:02 10° SSW 18:00:29 64° WNW 18:04:59 10° N
Cosmos 1190 Rocket 4.2 17:56:34 10° SSW 18:01:51 70° WNW 18:05:26 21° NNE
Cosmos 2034 Rocket 3.8 17:57:35 10° S 18:03:47 79° E 18:10:05 10° N
ISS -2.7 18:01:18 10° W 18:03:52 43° WNW 18:03:52 43° WNW
Cosmos 676 Rocket 3.9 17:59:36 10° SSW 18:04:55 81° ESE 18:06:42 43° NNE
Okean 1 Rocket 3.0 18:02:43 10° S 18:07:08 83° W 18:08:25 46° N
SKYMED 2 4.1 18:03:51 14° N 18:07:28 58° WNW 18:11:43 10° SSW
Cosmos 1656 Rocket 3.6 18:02:08 10° S 18:07:34 60° ESE 18:08:00 58° E
USA 281 3.3 18:11:29 48° ENE 18:12:09 50° NE 18:18:27 10° NNW
Sich 1 Rocket 3.8 18:08:22 10° SSW 18:12:53 73° W 18:14:56 33° N
Cosmos 1954 Rocket 4.3 18:09:02 10° SSW 18:14:17 67° WNW 18:16:53 30° N
COSMOS 2406 3.4 18:09:16 10° NNW 18:14:56 72° WSW 18:19:01 19° SSE
Cosmos 1932 4.4 18:08:41 10° SSW 18:15:00 70° ESE 18:16:22 55° ENE
Cosmos 1092 Rocket 3.8 18:10:29 10° N 18:16:47 77° E 18:22:57 10° SSE
BlueWalker 3 4.2 18:14:43 10° SSW 18:15:40 16° SSW 18:15:40 16° SSW
Cosmos 2026 Rocket 3.8 18:15:39 10° N 18:21:46 88° W 18:27:56 10° S
SJ 16-02 2.2 18:19:23 10° SW 18:23:31 46° WNW 18:24:29 39° NNW
YAOGAN 1 3.6 18:19:57 10° S 18:24:01 43° W 18:28:06 10° NNW
Cosmos 44 Rocket 4.5 18:20:24 10° WSW 18:24:53 37° NW 18:26:13 31° N
Cosmos 2344 3.9 18:25:12 10° NW 18:33:10 89° SW 18:38:34 33° SE
Cosmos 2297 Rocket 4.5 18:32:40 10° N 18:33:09 11° N 18:33:09 11° N
Meteor 2-3 Rocket 4.2 18:32:04 10° NNW 18:37:39 60° W 18:43:10 10° S
Cosmos 371 Rocket 4.4 18:45:47 10° SW 18:50:18 40° WNW 18:50:35 39° NW
CZ-4C R/B 4.1 18:47:49 10° NW 18:51:49 21° N 18:51:49 21° N
Resurs 01 Rocket 4.1 19:07:36 15° NNW 19:07:36 15° NNW 19:08:31 10° NNW
Cosmos 1943 Rocket 4.4 19:10:58 10° W 19:14:47 18° NW 19:16:48 15° NNW
ATLAS 2AS CENTAUR R/B 3.3 19:24:37 10° NW 19:29:41 50° WNW 19:29:41 50° WNW
USA 281 4.5 19:58:22 35° WNW 19:58:22 35° WNW 20:02:55 10° NW
